Time,TemperatureF,DewpointF,PressureIn,WindDirection,WindDirectionDegrees,WindSpeedMPH,WindSpeedGustMPH,Humidity,HourlyPrecipIn,Conditions,Clouds,dailyrainin,SoftwareType,DateUTC
2013-07-04 00:01:00,78.0,75.8,30.21,South,173,0.0,3.0,93,0.00,,CLR,0.00,VWS V14.01,2013-07-04 04:01:00,
2013-07-04 00:02:00,78.0,75.8,30.21,South,173,0.0,4.0,93,0.00,,CLR,0.00,VWS V14.01,2013-07-04 04:02:00,
2013-07-04 00:07:00,77.9,75.7,30.21,South,179,5.0,7.0,93,0.00,,CLR,0.00,VWS V14.01,2013-07-04 04:07:00,
2013-07-04 00:12:00,77.9,75.7,30.21,South,173,1.0,5.0,93,0.00,,CLR,0.00,VWS V14.01,2013-07-04 04:12:00,
2013-07-04 00:17:00,77.9,76.0,30.21,SSW,197,0.0,6.0,94,0.00,,CLR,0.00,VWS V14.01,2013-07-04 04:17:00,
2013-07-04 00:22:00,78.0,76.1,30.21,SSE,153,7.0,8.0,94,0.00,,CLR,0.00,VWS V14.01,2013-07-04 04:22:00,
2013-07-04 00:27:00,77.9,76.0,30.21,SSW,193,5.0,7.0,94,0.00,,CLR,0.00,VWS V14.01,2013-07-04 04:27:00,
2013-07-04 00:32:00,78.0,76.1,30.21,SSE,159,5.0,5.0,94,0.00,,CLR,0.00,VWS V14.01,2013-07-04 04:32:00,
2013-07-04 00:37:00,77.9,76.0,30.20,South,180,5.0,7.0,94,0.00,,CLR,0.00,VWS V14.01,2013-07-04 04:37:00,
2013-07-04 00:42:00,77.9,75.7,30.20,South,174,11.0,11.0,93,0.00,,CLR,0.00,VWS V14.01,2013-07-04 04:42:00,
2013-07-04 00:47:00,77.8,75.6,30.20,SSE,163,5.0,8.0,93,0.00,,CLR,0.00,VWS V14.01,2013-07-04 04:47:00,
2013-07-04 00:52:00,77.9,75.7,30.20,SSW,204,7.0,10.0,93,0.00,,CLR,0.00,VWS V14.01,2013-07-04 04:52:00,
2013-07-04 00:57:00,77.8,75.3,30.20,South,186,2.0,10.0,92,0.00,,CLR,0.00,VWS V14.01,2013-07-04 04:57:00,
2013-07-04 01:02:00,77.8,75.3,30.20,South,183,3.0,8.0,92,0.00,,CLR,0.00,VWS V14.01,2013-07-04 05:02:00,
2013-07-04 01:07:00,77.7,75.2,30.20,SSE,154,2.0,10.0,92,0.00,,CLR,0.00,VWS V14.01,2013-07-04 05:07:00,
2013-07-04 01:12:00,77.6,75.1,30.20,SSW,196,5.0,6.0,92,0.00,,CLR,0.00,VWS V14.01,2013-07-04 05:12:00,
2013-07-04 01:18:00,77.5,75.0,30.20,SSW,192,6.0,7.0,92,0.00,,CLR,0.00,VWS V14.01,2013-07-04 05:18:00,
2013-07-04 01:23:00,77.4,75.2,30.20,SW,217,3.0,7.0,93,0.00,,CLR,0.00,VWS V14.01,2013-07-04 05:23:00,
2013-07-04 01:28:00,77.4,75.2,30.20,SW,231,5.0,11.0,93,0.00,,CLR,0.00,VWS V14.01,2013-07-04 05:28:00,
2013-07-04 01:33:00,77.3,75.1,30.20,SSW,192,1.0,6.0,93,0.00,,CLR,0.00,VWS V14.01,2013-07-04 05:33:00,
2013-07-04 01:38:00,77.3,75.1,30.20,South,172,1.0,7.0,93,0.00,,CLR,0.00,VWS V14.01,2013-07-04 05:38:00,
2013-07-04 01:43:00,77.2,75.0,30.20,SSE,168,0.0,5.0,93,0.00,,CLR,0.00,VWS V14.01,2013-07-04 05:43:00,
2013-07-04 01:48:00,77.1,75.2,30.20,SSW,207,3.0,6.0,94,0.00,,CLR,0.00,VWS V14.01,2013-07-04 05:48:00,
2013-07-04 01:53:00,77.1,75.2,30.20,SW,222,4.0,7.0,94,0.00,,CLR,0.00,VWS V14.01,2013-07-04 05:53:00,
2013-07-04 01:58:00,77.1,75.2,30.20,South,169,2.0,6.0,94,0.00,,CLR,0.00,VWS V14.01,2013-07-04 05:58:00,
2013-07-04 02:03:00,77.1,75.2,30.20,South,181,2.0,7.0,94,0.00,,CLR,0.00,VWS V14.01,2013-07-04 06:03:00,
2013-07-04 02:08:00,77.0,75.1,30.20,SSW,197,1.0,7.0,94,0.00,,CLR,0.00,VWS V14.01,2013-07-04 06:08:00,
2013-07-04 02:13:00,77.0,75.1,30.20,South,175,2.0,6.0,94,0.00,,CLR,0.00,VWS V14.01,2013-07-04 06:13:00,
2013-07-04 02:18:00,77.0,75.1,30.20,SSW,199,3.0,11.0,94,0.00,,CLR,0.00,VWS V14.01,2013-07-04 06:18:00,
2013-07-04 02:23:00,77.0,75.1,30.20,South,188,5.0,9.0,94,0.00,,CLR,0.00,VWS V14.01,2013-07-04 06:23:00,
2013-07-04 02:28:00,77.0,75.1,30.20,South,170,4.0,9.0,94,0.00,,CLR,0.00,VWS V14.01,2013-07-04 06:28:00,
2013-07-04 02:33:00,77.0,75.1,30.20,SSE,159,0.0,10.0,94,0.00,,CLR,0.00,VWS V14.01,2013-07-04 06:33:00,
2013-07-04 02:38:00,77.0,75.1,30.20,South,191,0.0,2.0,94,0.00,,CLR,0.00,VWS V14.01,2013-07-04 06:38:00,
2013-07-04 02:43:00,77.0,75.1,30.20,SSE,154,6.0,8.0,94,0.00,,CLR,0.00,VWS V14.01,2013-07-04 06:43:00,
2013-07-04 02:48:00,77.0,75.1,30.20,SSE,152,6.0,6.0,94,0.00,,CLR,0.00,VWS V14.01,2013-07-04 06:48:00,
2013-07-04 02:53:00,77.1,75.2,30.20,South,180,0.0,10.0,94,0.00,,CLR,0.00,VWS V14.01,2013-07-04 06:53:00,
2013-07-04 02:58:00,77.1,75.2,30.20,SSE,158,5.0,9.0,94,0.00,,CLR,0.00,VWS V14.01,2013-07-04 06:58:00,
2013-07-04 03:03:00,77.1,74.9,30.20,SSE,167,7.0,9.0,93,0.00,,CLR,0.00,VWS V14.01,2013-07-04 07:03:00,
2013-07-04 03:08:00,77.1,74.9,30.20,SSE,163,8.0,14.0,93,0.00,,CLR,0.00,VWS V14.01,2013-07-04 07:08:00,
2013-07-04 03:13:00,77.1,74.9,30.20,SW,224,5.0,10.0,93,0.00,,CLR,0.00,VWS V14.01,2013-07-04 07:13:00,
2013-07-04 03:18:00,77.1,74.9,30.19,South,180,7.0,12.0,93,0.00,,CLR,0.00,VWS V14.01,2013-07-04 07:18:00,
2013-07-04 03:23:00,77.0,74.8,30.19,SSE,157,5.0,11.0,93,0.00,,CLR,0.00,VWS V14.01,2013-07-04 07:23:00,
2013-07-04 03:28:00,77.0,74.8,30.19,South,171,9.0,9.0,93,0.00,,CLR,0.00,VWS V14.01,2013-07-04 07:28:00,
2013-07-04 03:33:00,76.9,74.7,30.19,SSE,148,4.0,9.0,93,0.00,,CLR,0.00,VWS V14.01,2013-07-04 07:33:00,
2013-07-04 03:38:00,76.9,74.7,30.19,South,173,2.0,10.0,93,0.00,,CLR,0.00,VWS V14.01,2013-07-04 07:38:00,
2013-07-04 03:43:00,76.8,74.6,30.19,South,177,6.0,10.0,93,0.00,,CLR,0.00,VWS V14.01,2013-07-04 07:43:00,
2013-07-04 03:48:00,76.8,74.6,30.19,South,188,6.0,11.0,93,0.00,,CLR,0.00,VWS V14.01,2013-07-04 07:48:00,
2013-07-04 03:53:00,76.9,74.7,30.19,SSE,158,6.0,10.0,93,0.00,,CLR,0.00,VWS V14.01,2013-07-04 07:53:00,
2013-07-04 03:58:00,76.8,74.6,30.19,SSE,168,9.0,13.0,93,0.00,,CLR,0.00,VWS V14.01,2013-07-04 07:58:00,
2013-07-04 04:03:00,76.8,74.6,30.20,SSE,157,1.0,12.0,93,0.00,,CLR,0.00,VWS V14.01,2013-07-04 08:03:00,
2013-07-04 04:08:00,76.7,74.5,30.20,SSE,168,6.0,11.0,93,0.00,,CLR,0.00,VWS V14.01,2013-07-04 08:08:00,
2013-07-04 04:13:00,76.7,74.5,30.20,South,175,4.0,11.0,93,0.00,,CLR,0.00,VWS V14.01,2013-07-04 08:13:00,
2013-07-04 04:18:00,76.7,74.8,30.20,SSE,163,7.0,10.0,94,0.00,,CLR,0.00,VWS V14.01,2013-07-04 08:18:00,
2013-07-04 04:23:00,76.7,74.8,30.20,SE,132,6.0,8.0,94,0.00,,CLR,0.00,VWS V14.01,2013-07-04 08:23:00,
2013-07-04 04:28:00,76.6,74.8,30.20,SSE,157,3.0,13.0,94,0.00,,CLR,0.00,VWS V14.01,2013-07-04 08:28:00,
2013-07-04 04:33:00,76.7,74.8,30.20,South,177,3.0,11.0,94,0.00,,CLR,0.00,VWS V14.01,2013-07-04 08:33:00,
2013-07-04 04:38:00,76.7,74.8,30.20,South,177,9.0,11.0,94,0.00,,CLR,0.00,VWS V14.01,2013-07-04 08:38:00,
2013-07-04 04:44:00,76.7,74.8,30.20,SSW,213,5.0,13.0,94,0.00,,CLR,0.00,VWS V14.01,2013-07-04 08:44:00,
2013-07-04 04:49:00,76.6,74.8,30.20,South,175,7.0,11.0,94,0.00,,CLR,0.00,VWS V14.01,2013-07-04 08:49:00,
2013-07-04 04:54:00,76.6,74.8,30.21,SE,140,7.0,10.0,94,0.00,,CLR,0.00,VWS V14.01,2013-07-04 08:54:00,
2013-07-04 04:59:00,76.6,74.8,30.21,SW,219,6.0,12.0,94,0.00,,CLR,0.00,VWS V14.01,2013-07-04 08:59:00,
2013-07-04 05:04:00,76.6,74.8,30.21,South,171,6.0,9.0,94,0.00,,CLR,0.00,VWS V14.01,2013-07-04 09:04:00,
2013-07-04 05:09:00,76.6,74.8,30.21,South,182,3.0,10.0,94,0.00,,CLR,0.00,VWS V14.01,2013-07-04 09:09:00,
2013-07-04 05:14:00,76.7,75.2,30.21,SSE,160,9.0,11.0,95,0.00,,CLR,0.00,VWS V14.01,2013-07-04 09:14:00,
2013-07-04 05:19:00,76.6,74.8,30.21,SSE,156,0.0,6.0,94,0.00,,CLR,0.00,VWS V14.01,2013-07-04 09:19:00,
2013-07-04 05:24:00,76.5,74.7,30.21,ESE,123,3.0,9.0,94,0.00,,CLR,0.00,VWS V14.01,2013-07-04 09:24:00,
2013-07-04 05:29:00,76.4,74.9,30.22,SSW,203,0.0,6.0,95,0.00,,CLR,0.00,VWS V14.01,2013-07-04 09:29:00,
2013-07-04 05:34:00,76.4,74.9,30.22,SSW,200,3.0,6.0,95,0.00,,BKN017,0.00,VWS V14.01,2013-07-04 09:34:00,
2013-07-04 05:39:00,76.4,74.9,30.22,SSW,198,3.0,9.0,95,0.00,,BKN017,0.00,VWS V14.01,2013-07-04 09:39:00,
2013-07-04 05:44:00,76.3,74.8,30.21,SSE,156,1.0,5.0,95,0.00,,BKN017,0.00,VWS V14.01,2013-07-04 09:44:00,
2013-07-04 05:49:00,76.3,74.8,30.22,SSW,209,7.0,9.0,95,0.00,,BKN017,0.00,VWS V14.01,2013-07-04 09:49:00,
2013-07-04 05:54:00,76.3,74.8,30.22,SW,216,7.0,7.0,95,0.00,,BKN015,0.00,VWS V14.01,2013-07-04 09:54:00,
2013-07-04 05:59:00,76.3,74.8,30.22,SSE,150,7.0,7.0,95,0.00,,BKN015,0.00,VWS V14.01,2013-07-04 09:59:00,
2013-07-04 06:04:00,76.3,74.8,30.22,SSE,164,4.0,11.0,95,0.00,,BKN015,0.00,VWS V14.01,2013-07-04 10:04:00,
2013-07-04 06:09:00,76.3,74.8,30.22,SSE,165,5.0,7.0,95,0.00,,BKN015,0.00,VWS V14.01,2013-07-04 10:09:00,
2013-07-04 06:14:00,76.3,74.8,30.22,SSW,200,3.0,10.0,95,0.00,,BKN015,0.00,VWS V14.01,2013-07-04 10:14:00,
2013-07-04 06:19:00,76.3,74.8,30.22,SSE,157,4.0,12.0,95,0.00,,BKN015,0.00,VWS V14.01,2013-07-04 10:19:00,
2013-07-04 06:24:00,76.4,74.9,30.22,SW,221,10.0,10.0,95,0.00,,BKN015,0.00,VWS V14.01,2013-07-04 10:24:00,
2013-07-04 06:29:00,76.4,74.9,30.22,South,171,4.0,7.0,95,0.00,,BKN015,0.00,VWS V14.01,2013-07-04 10:29:00,
2013-07-04 06:34:00,76.4,74.9,30.22,South,191,7.0,12.0,95,0.00,,BKN027,0.00,VWS V14.01,2013-07-04 10:34:00,
2013-07-04 06:39:00,76.5,75.0,30.22,SSW,201,3.0,10.0,95,0.00,,BKN027,0.00,VWS V14.01,2013-07-04 10:39:00,
2013-07-04 06:44:00,76.6,75.1,30.22,SSW,211,9.0,9.0,95,0.00,,BKN027,0.00,VWS V14.01,2013-07-04 10:44:00,
2013-07-04 06:49:00,76.7,75.2,30.23,SSW,211,7.0,11.0,95,0.00,,BKN027,0.00,VWS V14.01,2013-07-04 10:49:00,
2013-07-04 06:54:00,76.6,75.1,30.23,SW,236,2.0,10.0,95,0.00,,BKN013,0.00,VWS V14.01,2013-07-04 10:54:00,
2013-07-04 06:59:00,76.5,74.7,30.23,SW,223,3.0,11.0,94,0.00,,BKN013,0.00,VWS V14.01,2013-07-04 10:59:00,
2013-07-04 07:04:00,76.5,74.7,30.23,SW,223,4.0,10.0,94,0.00,,BKN013,0.00,VWS V14.01,2013-07-04 11:04:00,
2013-07-04 07:09:00,76.5,74.7,30.23,SSW,200,4.0,15.0,94,0.00,,BKN013,0.00,VWS V14.01,2013-07-04 11:09:00,
2013-07-04 07:15:00,76.5,74.7,30.23,SW,221,4.0,12.0,94,0.00,,BKN013,0.00,VWS V14.01,2013-07-04 11:15:00,
2013-07-04 07:20:00,76.6,74.8,30.23,SW,233,5.0,11.0,94,0.00,,BKN013,0.00,VWS V14.01,2013-07-04 11:20:00,
2013-07-04 07:25:00,76.7,74.8,30.23,SSW,198,7.0,9.0,94,0.00,,BKN013,0.00,VWS V14.01,2013-07-04 11:25:00,
2013-07-04 07:30:00,76.7,74.5,30.23,South,176,0.0,13.0,93,0.00,,BKN013,0.00,VWS V14.01,2013-07-04 11:30:00,
2013-07-04 07:35:00,76.7,74.5,30.23,SSW,211,4.0,7.0,93,0.00,,BKN017,0.00,VWS V14.01,2013-07-04 11:35:00,
2013-07-04 07:40:00,76.7,74.5,30.24,SW,221,3.0,5.0,93,0.00,,BKN017,0.00,VWS V14.01,2013-07-04 11:40:00,
2013-07-04 07:45:00,76.7,74.5,30.24,WSW,244,4.0,8.0,93,0.00,,BKN017,0.00,VWS V14.01,2013-07-04 11:45:00,
2013-07-04 07:50:00,76.7,74.5,30.24,SW,217,5.0,7.0,93,0.00,,BKN011,0.00,VWS V14.01,2013-07-04 11:50:00,
2013-07-04 07:55:00,76.6,74.4,30.24,SW,215,7.0,12.0,93,0.00,,BKN011,0.00,VWS V14.01,2013-07-04 11:55:00,
2013-07-04 08:00:00,76.6,74.4,30.24,SSW,212,7.0,11.0,93,0.00,,BKN011,0.00,VWS V14.01,2013-07-04 12:00:00,
2013-07-04 08:05:00,76.6,74.4,30.24,SSW,213,5.0,10.0,93,0.00,,BKN011,0.00,VWS V14.01,2013-07-04 12:05:00,
2013-07-04 08:10:00,76.6,74.4,30.24,SSW,206,12.0,15.0,93,0.00,,BKN011,0.00,VWS V14.01,2013-07-04 12:10:00,
2013-07-04 08:15:00,76.6,74.4,30.25,West,259,10.0,11.0,93,0.00,,BKN011,0.00,VWS V14.01,2013-07-04 12:15:00,
2013-07-04 08:20:00,76.5,74.0,30.25,SW,230,7.0,12.0,92,0.00,,BKN011,0.00,VWS V14.01,2013-07-04 12:20:00,
2013-07-04 08:25:00,76.5,74.0,30.24,SW,233,9.0,12.0,92,0.00,,BKN011,0.00,VWS V14.01,2013-07-04 12:25:00,
2013-07-04 08:30:00,76.6,74.1,30.25,SSW,210,4.0,12.0,92,0.00,,BKN011,0.00,VWS V14.01,2013-07-04 12:30:00,
2013-07-04 08:35:00,76.6,74.4,30.25,SW,228,5.0,10.0,93,0.00,,OVC012,0.00,VWS V14.01,2013-07-04 12:35:00,
2013-07-04 08:40:00,76.6,74.1,30.25,South,190,10.0,11.0,92,0.00,,OVC012,0.00,VWS V14.01,2013-07-04 12:40:00,
2013-07-04 08:45:00,76.9,74.4,30.25,SW,219,2.0,7.0,92,0.00,,OVC012,0.00,VWS V14.01,2013-07-04 12:45:00,
2013-07-04 08:50:00,77.3,74.8,30.25,SSW,211,6.0,10.0,92,0.00,,OVC012,0.00,VWS V14.01,2013-07-04 12:50:00,
2013-07-04 08:55:00,77.5,74.7,30.24,SSW,213,6.0,10.0,91,0.00,,OVC012,0.00,VWS V14.01,2013-07-04 12:55:00,
2013-07-04 09:00:00,77.9,75.4,30.25,South,191,0.0,11.0,92,0.00,,OVC012,0.00,VWS V14.01,2013-07-04 13:00:00,
2013-07-04 09:05:00,78.4,75.9,30.25,SW,231,1.0,7.0,92,0.00,,OVC012,0.00,VWS V14.01,2013-07-04 13:05:00,
2013-07-04 09:10:00,78.6,75.4,30.25,SSW,192,5.0,14.0,90,0.00,,OVC012,0.00,VWS V14.01,2013-07-04 13:10:00,
2013-07-04 09:15:00,78.6,75.1,30.25,SSW,192,7.0,7.0,89,0.00,,OVC012,0.00,VWS V14.01,2013-07-04 13:15:00,
2013-07-04 09:20:00,78.5,75.3,30.24,South,184,9.0,10.0,90,0.00,,OVC012,0.00,VWS V14.01,2013-07-04 13:20:00,
2013-07-04 09:25:00,78.7,75.2,30.24,South,190,11.0,14.0,89,0.00,,OVC012,0.00,VWS V14.01,2013-07-04 13:25:00,
2013-07-04 09:30:00,79.0,75.8,30.24,South,169,4.0,10.0,90,0.00,,OVC012,0.00,VWS V14.01,2013-07-04 13:30:00,
2013-07-04 09:35:00,79.2,75.7,30.24,SSE,164,7.0,10.0,89,0.00,,OVC020,0.00,VWS V14.01,2013-07-04 13:35:00,
2013-07-04 09:40:00,79.1,74.9,30.24,SSE,163,7.0,15.0,87,0.00,,OVC020,0.00,VWS V14.01,2013-07-04 13:40:00,
2013-07-04 09:45:00,79.2,75.3,30.24,SSE,167,4.0,11.0,88,0.00,,OVC020,0.00,VWS V14.01,2013-07-04 13:45:00,
2013-07-04 09:50:00,79.5,75.6,30.24,SSE,154,4.0,9.0,88,0.00,,BKN027,0.00,VWS V14.01,2013-07-04 13:50:00,
2013-07-04 09:55:00,79.7,75.8,30.24,SE,144,7.0,7.0,88,0.00,,BKN027,0.00,VWS V14.01,2013-07-04 13:55:00,
2013-07-04 10:00:00,79.8,75.9,30.24,SSE,152,4.0,10.0,88,0.00,,BKN027,0.00,VWS V14.01,2013-07-04 14:00:00,
2013-07-04 10:05:00,79.9,75.3,30.24,South,172,4.0,12.0,86,0.00,,BKN027,0.00,VWS V14.01,2013-07-04 14:05:00,
2013-07-04 10:10:00,80.0,75.8,30.24,SSW,213,4.0,5.0,87,0.00,,BKN027,0.00,VWS V14.01,2013-07-04 14:10:00,
2013-07-04 10:15:00,80.1,75.9,30.24,South,179,5.0,11.0,87,0.00,,BKN027,0.00,VWS V14.01,2013-07-04 14:15:00,
2013-07-04 10:20:00,80.2,76.3,30.24,South,182,5.0,7.0,88,0.00,,BKN027,0.00,VWS V14.01,2013-07-04 14:20:00,
2013-07-04 10:25:00,80.3,76.1,30.25,SSW,204,2.0,10.0,87,0.00,,BKN027,0.00,VWS V14.01,2013-07-04 14:25:00,
2013-07-04 10:30:00,80.4,75.8,30.24,SE,144,4.0,11.0,86,0.00,,BKN027,0.00,VWS V14.01,2013-07-04 14:30:00,
2013-07-04 10:35:00,80.7,76.5,30.24,SSE,162,2.0,7.0,87,0.00,,BKN025,0.00,VWS V14.01,2013-07-04 14:35:00,
2013-07-04 10:40:00,81.1,76.5,30.24,SSE,161,9.0,11.0,86,0.00,,BKN025,0.00,VWS V14.01,2013-07-04 14:40:00,
2013-07-04 10:46:00,80.9,76.0,30.24,South,177,4.0,7.0,85,0.00,,BKN025,0.00,VWS V14.01,2013-07-04 14:46:00,
2013-07-04 10:51:00,80.7,75.8,30.24,South,180,11.0,12.0,85,0.00,,BKN025,0.00,VWS V14.01,2013-07-04 14:51:00,
2013-07-04 10:56:00,80.5,75.9,30.24,South,184,12.0,12.0,86,0.00,,BKN025,0.00,VWS V14.01,2013-07-04 14:56:00,
2013-07-04 11:01:00,80.2,75.6,30.24,South,181,7.0,13.0,86,0.00,,BKN025,0.00,VWS V14.01,2013-07-04 15:01:00,
2013-07-04 11:06:00,80.2,76.0,30.24,SSE,164,11.0,11.0,87,0.00,,BKN025,0.00,VWS V14.01,2013-07-04 15:06:00,
2013-07-04 11:11:00,80.4,75.8,30.24,SSE,157,7.0,13.0,86,0.00,,BKN025,0.00,VWS V14.01,2013-07-04 15:11:00,
2013-07-04 11:16:00,80.4,75.8,30.24,South,172,10.0,12.0,86,0.00,,BKN025,0.00,VWS V14.01,2013-07-04 15:16:00,
2013-07-04 11:21:00,80.3,75.7,30.24,SSE,162,9.0,14.0,86,0.00,,BKN025,0.00,VWS V14.01,2013-07-04 15:21:00,
2013-07-04 11:26:00,80.5,76.3,30.24,South,178,6.0,14.0,87,0.00,,BKN025,0.00,VWS V14.01,2013-07-04 15:26:00,
2013-07-04 11:31:00,80.6,76.4,30.24,South,177,8.0,10.0,87,0.00,,BKN025,0.00,VWS V14.01,2013-07-04 15:31:00,
2013-07-04 11:36:00,80.8,76.2,30.24,South,177,6.0,11.0,86,0.00,,BKN025,0.00,VWS V14.01,2013-07-04 15:36:00,
2013-07-04 11:41:00,80.8,75.5,30.24,South,182,12.0,12.0,84,0.00,,BKN025,0.00,VWS V14.01,2013-07-04 15:41:00,
2013-07-04 11:46:00,80.8,75.9,30.24,SSE,159,6.0,10.0,85,0.00,,BKN025,0.00,VWS V14.01,2013-07-04 15:46:00,
2013-07-04 11:51:00,80.8,75.9,30.24,SSW,194,9.0,12.0,85,0.00,,BKN025,0.00,VWS V14.01,2013-07-04 15:51:00,
2013-07-04 11:56:00,81.2,77.0,30.24,SSW,192,11.0,13.0,87,0.00,,BKN025,0.00,VWS V14.01,2013-07-04 15:56:00,
2013-07-04 12:01:00,81.4,76.8,30.24,South,189,13.0,16.0,86,0.00,,BKN025,0.00,VWS V14.01,2013-07-04 16:01:00,
2013-07-04 12:06:00,81.5,76.9,30.24,SSE,163,13.0,13.0,86,0.00,,BKN025,0.00,VWS V14.01,2013-07-04 16:06:00,
2013-07-04 12:11:00,81.6,76.7,30.24,South,169,12.0,15.0,85,0.00,,BKN025,0.00,VWS V14.01,2013-07-04 16:11:00,
2013-07-04 12:16:00,81.2,76.3,30.24,SSE,167,11.0,12.0,85,0.00,,BKN025,0.00,VWS V14.01,2013-07-04 16:16:00,
2013-07-04 12:21:00,81.2,77.0,30.24,South,189,11.0,13.0,87,0.00,,BKN025,0.00,VWS V14.01,2013-07-04 16:21:00,
2013-07-04 12:26:00,81.7,77.1,30.24,South,182,16.0,17.0,86,0.00,,BKN025,0.00,VWS V14.01,2013-07-04 16:26:00,
2013-07-04 12:31:00,81.8,77.2,30.23,SSE,160,13.0,13.0,86,0.00,,BKN025,0.00,VWS V14.01,2013-07-04 16:31:00,
2013-07-04 12:36:00,82.1,77.5,30.23,SSE,157,4.0,13.0,86,0.00,,BKN038,0.00,VWS V14.01,2013-07-04 16:36:00,
2013-07-04 12:41:00,82.0,77.1,30.23,SSE,168,13.0,13.0,85,0.00,,BKN038,0.00,VWS V14.01,2013-07-04 16:41:00,
2013-07-04 12:46:00,82.0,77.1,30.23,SSE,167,13.0,16.0,85,0.00,,BKN038,0.00,VWS V14.01,2013-07-04 16:46:00,
2013-07-04 12:51:00,82.0,77.1,30.23,SSE,162,14.0,15.0,85,0.00,,BKN038,0.00,VWS V14.01,2013-07-04 16:51:00,
2013-07-04 12:56:00,82.0,76.7,30.23,SSE,167,10.0,14.0,84,0.00,,BKN038,0.00,VWS V14.01,2013-07-04 16:56:00,
2013-07-04 13:01:00,82.1,76.8,30.23,SSE,167,11.0,15.0,84,0.00,,BKN038,0.00,VWS V14.01,2013-07-04 17:01:00,
2013-07-04 13:06:00,82.2,77.2,30.23,SSE,166,10.0,14.0,85,0.00,,BKN038,0.00,VWS V14.01,2013-07-04 17:06:00,
2013-07-04 13:11:00,82.5,76.8,30.23,South,171,15.0,15.0,83,0.00,,BKN038,0.00,VWS V14.01,2013-07-04 17:11:00,
2013-07-04 13:16:00,82.7,77.0,30.23,South,177,12.0,13.0,83,0.00,,BKN038,0.00,VWS V14.01,2013-07-04 17:16:00,
2013-07-04 13:21:00,82.8,77.1,30.23,South,172,9.0,15.0,83,0.00,,BKN038,0.00,VWS V14.01,2013-07-04 17:21:00,
2013-07-04 13:26:00,82.8,76.8,30.23,South,173,11.0,15.0,82,0.00,,BKN038,0.00,VWS V14.01,2013-07-04 17:26:00,
2013-07-04 13:31:00,83.0,77.7,30.23,SSE,163,12.0,12.0,84,0.00,,BKN038,0.00,VWS V14.01,2013-07-04 17:31:00,
2013-07-04 13:36:00,83.0,77.3,30.23,South,172,11.0,15.0,83,0.00,,BKN038,0.00,VWS V14.01,2013-07-04 17:36:00,
2013-07-04 13:42:00,83.0,76.9,30.23,SSE,161,9.0,14.0,82,0.00,,BKN038,0.00,VWS V14.01,2013-07-04 17:42:00,
2013-07-04 13:47:00,83.0,77.3,30.22,South,169,13.0,13.0,83,0.00,,BKN038,0.00,VWS V14.01,2013-07-04 17:47:00,
2013-07-04 13:52:00,83.0,76.6,30.22,South,175,13.0,14.0,81,0.00,,BKN038,0.00,VWS V14.01,2013-07-04 17:52:00,
2013-07-04 13:57:00,83.1,77.0,30.22,SSE,163,9.0,13.0,82,0.00,,BKN038,0.00,VWS V14.01,2013-07-04 17:57:00,
2013-07-04 14:02:00,83.3,77.6,30.22,South,169,15.0,15.0,83,0.00,,BKN038,0.00,VWS V14.01,2013-07-04 18:02:00,
2013-07-04 14:07:00,83.3,76.9,30.22,South,179,14.0,14.0,81,0.00,,BKN038,0.00,VWS V14.01,2013-07-04 18:07:00,
2013-07-04 14:12:00,83.4,77.7,30.22,South,180,10.0,13.0,83,0.00,,BKN038,0.00,VWS V14.01,2013-07-04 18:12:00,
2013-07-04 14:17:00,83.6,77.9,30.22,South,181,9.0,13.0,83,0.00,,BKN038,0.00,VWS V14.01,2013-07-04 18:17:00,
2013-07-04 14:22:00,83.5,77.4,30.22,South,188,6.0,14.0,82,0.00,,BKN038,0.00,VWS V14.01,2013-07-04 18:22:00,
2013-07-04 14:27:00,83.6,77.2,30.22,SSE,165,11.0,15.0,81,0.00,,BKN038,0.00,VWS V14.01,2013-07-04 18:27:00,
2013-07-04 14:32:00,83.8,77.7,30.21,SSE,156,10.0,14.0,82,0.00,,BKN038,0.00,VWS V14.01,2013-07-04 18:32:00,
2013-07-04 14:37:00,83.8,77.0,30.21,SSW,202,13.0,15.0,80,0.00,,BKN045,0.00,VWS V14.01,2013-07-04 18:37:00,
2013-07-04 14:42:00,83.8,77.0,30.21,South,175,11.0,15.0,80,0.00,,BKN045,0.00,VWS V14.01,2013-07-04 18:42:00,
2013-07-04 14:47:00,83.9,77.8,30.21,South,176,11.0,13.0,82,0.00,,BKN045,0.00,VWS V14.01,2013-07-04 18:47:00,
2013-07-04 14:52:00,83.9,77.1,30.21,South,169,11.0,14.0,80,0.00,,BKN045,0.00,VWS V14.01,2013-07-04 18:52:00,
2013-07-04 14:57:00,84.1,77.6,30.20,SSE,164,13.0,13.0,81,0.00,,BKN045,0.00,VWS V14.01,2013-07-04 18:57:00,
2013-07-04 15:02:00,84.1,77.3,30.20,SSE,157,7.0,11.0,80,0.00,,BKN045,0.00,VWS V14.01,2013-07-04 19:02:00,
2013-07-04 15:07:00,84.1,77.6,30.20,SSW,197,10.0,12.0,81,0.00,,BKN045,0.00,VWS V14.01,2013-07-04 19:07:00,
2013-07-04 15:12:00,84.2,77.7,30.20,SSW,202,8.0,10.0,81,0.00,,BKN045,0.00,VWS V14.01,2013-07-04 19:12:00,
2013-07-04 15:17:00,84.3,77.5,30.20,South,178,11.0,12.0,80,0.00,,BKN045,0.00,VWS V14.01,2013-07-04 19:17:00,
2013-07-04 15:22:00,84.1,77.6,30.20,South,177,9.0,12.0,81,0.00,,BKN045,0.00,VWS V14.01,2013-07-04 19:22:00,
2013-07-04 15:27:00,84.2,77.7,30.20,South,173,9.0,11.0,81,0.00,,BKN045,0.00,VWS V14.01,2013-07-04 19:27:00,
2013-07-04 15:32:00,84.2,77.4,30.19,South,178,11.0,13.0,80,0.00,,SCT038,0.00,VWS V14.01,2013-07-04 19:32:00,
2013-07-04 15:37:00,84.3,77.5,30.19,South,177,13.0,13.0,80,0.00,,SCT038,0.00,VWS V14.01,2013-07-04 19:37:00,
2013-07-04 15:42:00,84.4,77.9,30.19,South,172,4.0,11.0,81,0.00,,SCT038,0.00,VWS V14.01,2013-07-04 19:42:00,
2013-07-04 15:47:00,84.5,77.3,30.19,SSE,168,11.0,12.0,79,0.00,,SCT038,0.00,VWS V14.01,2013-07-04 19:47:00,
2013-07-04 15:52:00,84.4,77.2,30.19,SSE,161,10.0,12.0,79,0.00,,SCT038,0.00,VWS V14.01,2013-07-04 19:52:00,
2013-07-04 15:57:00,84.6,78.5,30.19,South,184,13.0,13.0,82,0.00,,SCT038,0.00,VWS V14.01,2013-07-04 19:57:00,
2013-07-04 16:02:00,84.6,78.5,30.19,SSE,163,9.0,11.0,82,0.00,,SCT038,0.00,VWS V14.01,2013-07-04 20:02:00,
2013-07-04 16:07:00,84.5,78.0,30.19,South,179,6.0,12.0,81,0.00,,SCT038,0.00,VWS V14.01,2013-07-04 20:07:00,
2013-07-04 16:12:00,84.5,78.4,30.18,South,179,10.0,13.0,82,0.00,,SCT038,0.00,VWS V14.01,2013-07-04 20:12:00,
2013-07-04 16:17:00,84.4,77.9,30.18,SSW,194,8.0,13.0,81,0.00,,SCT038,0.00,VWS V14.01,2013-07-04 20:17:00,
2013-07-04 16:22:00,84.6,77.8,30.18,SSE,159,10.0,11.0,80,0.00,,SCT038,0.00,VWS V14.01,2013-07-04 20:22:00,
2013-07-04 16:27:00,84.6,77.4,30.18,SSE,160,6.0,11.0,79,0.00,,SCT038,0.00,VWS V14.01,2013-07-04 20:27:00,
2013-07-04 16:32:00,84.7,77.8,30.18,SSE,163,9.0,12.0,80,0.00,,SCT038,0.00,VWS V14.01,2013-07-04 20:32:00,
2013-07-04 16:37:00,84.7,77.8,30.18,South,172,10.0,12.0,80,0.00,,SCT038,0.00,VWS V14.01,2013-07-04 20:37:00,
2013-07-04 16:42:00,84.7,77.8,30.18,South,171,10.0,12.0,80,0.00,,SCT038,0.00,VWS V14.01,2013-07-04 20:42:00,
2013-07-04 16:47:00,84.7,77.8,30.17,South,171,5.0,11.0,80,0.00,,SCT038,0.00,VWS V14.01,2013-07-04 20:47:00,
2013-07-04 16:52:00,84.7,77.8,30.17,South,187,10.0,11.0,80,0.00,,SCT038,0.00,VWS V14.01,2013-07-04 20:52:00,
2013-07-04 16:57:00,84.8,77.9,30.17,South,179,9.0,12.0,80,0.00,,SCT038,0.00,VWS V14.01,2013-07-04 20:57:00,
2013-07-04 17:02:00,84.9,78.8,30.17,South,175,7.0,12.0,82,0.00,,SCT038,0.00,VWS V14.01,2013-07-04 21:02:00,
2013-07-04 17:07:00,84.9,78.4,30.17,SSE,150,11.0,12.0,81,0.00,,SCT038,0.00,VWS V14.01,2013-07-04 21:07:00,
2013-07-04 17:12:00,84.8,79.1,30.17,SSE,158,8.0,12.0,83,0.00,,SCT038,0.00,VWS V14.01,2013-07-04 21:12:00,
2013-07-04 17:18:00,84.7,78.6,30.17,South,170,8.0,12.0,82,0.00,,SCT038,0.00,VWS V14.01,2013-07-04 21:18:00,
2013-07-04 17:23:00,84.7,78.2,30.17,SSE,160,5.0,12.0,81,0.00,,SCT038,0.00,VWS V14.01,2013-07-04 21:23:00,
2013-07-04 17:28:00,84.7,78.6,30.17,SSE,161,9.0,12.0,82,0.00,,SCT038,0.00,VWS V14.01,2013-07-04 21:28:00,
2013-07-04 17:33:00,84.7,78.6,30.17,South,175,8.0,12.0,82,0.00,,SCT035,0.00,VWS V14.01,2013-07-04 21:33:00,
2013-07-04 17:38:00,84.6,78.5,30.17,SSE,165,11.0,14.0,82,0.00,,SCT035,0.00,VWS V14.01,2013-07-04 21:38:00,
2013-07-04 17:43:00,84.5,78.4,30.17,SSE,167,9.0,12.0,82,0.00,,SCT035,0.00,VWS V14.01,2013-07-04 21:43:00,
2013-07-04 17:48:00,84.5,78.4,30.16,South,179,13.0,13.0,82,0.00,,SCT035,0.00,VWS V14.01,2013-07-04 21:48:00,
2013-07-04 17:53:00,84.4,77.6,30.16,South,181,14.0,15.0,80,0.00,,SCT035,0.00,VWS V14.01,2013-07-04 21:53:00,
2013-07-04 17:58:00,84.3,77.8,30.16,SSE,150,12.0,14.0,81,0.00,,SCT035,0.00,VWS V14.01,2013-07-04 21:58:00,
2013-07-04 18:03:00,84.3,78.2,30.16,South,169,8.0,14.0,82,0.00,,SCT035,0.00,VWS V14.01,2013-07-04 22:03:00,
2013-07-04 18:08:00,84.2,77.7,30.16,South,177,10.0,16.0,81,0.00,,SCT035,0.00,VWS V14.01,2013-07-04 22:08:00,
2013-07-04 18:13:00,84.2,78.1,30.16,South,177,12.0,14.0,82,0.00,,SCT035,0.00,VWS V14.01,2013-07-04 22:13:00,
2013-07-04 18:18:00,84.2,78.1,30.16,South,180,9.0,14.0,82,0.00,,SCT035,0.00,VWS V14.01,2013-07-04 22:18:00,
2013-07-04 18:23:00,84.0,77.9,30.16,SE,142,6.0,13.0,82,0.00,,SCT035,0.00,VWS V14.01,2013-07-04 22:23:00,
2013-07-04 18:28:00,83.9,77.8,30.16,SSE,167,9.0,17.0,82,0.00,,SCT035,0.00,VWS V14.01,2013-07-04 22:28:00,
2013-07-04 18:33:00,83.8,77.3,30.16,SSE,153,13.0,14.0,81,0.00,,SCT037,0.00,VWS V14.01,2013-07-04 22:33:00,
2013-07-04 18:38:00,83.8,77.7,30.16,SSE,165,11.0,16.0,82,0.00,,SCT037,0.00,VWS V14.01,2013-07-04 22:38:00,
2013-07-04 18:43:00,83.7,77.6,30.16,SSE,164,10.0,14.0,82,0.00,,SCT037,0.00,VWS V14.01,2013-07-04 22:43:00,
2013-07-04 18:48:00,83.6,77.5,30.17,South,169,12.0,17.0,82,0.00,,SCT037,0.00,VWS V14.01,2013-07-04 22:48:00,
2013-07-04 18:53:00,83.6,77.2,30.16,SSE,159,12.0,16.0,81,0.00,,SCT037,0.00,VWS V14.01,2013-07-04 22:53:00,
2013-07-04 18:58:00,83.5,77.4,30.16,South,174,11.0,17.0,82,0.00,,SCT037,0.00,VWS V14.01,2013-07-04 22:58:00,
2013-07-04 19:03:00,83.4,77.7,30.16,South,185,14.0,19.0,83,0.00,,SCT037,0.00,VWS V14.01,2013-07-04 23:03:00,
2013-07-04 19:08:00,83.2,76.8,30.17,South,174,16.0,16.0,81,0.00,,SCT037,0.00,VWS V14.01,2013-07-04 23:08:00,
2013-07-04 19:13:00,83.1,77.0,30.17,South,175,13.0,16.0,82,0.00,,SCT037,0.00,VWS V14.01,2013-07-04 23:13:00,
2013-07-04 19:18:00,83.0,76.9,30.17,South,173,10.0,18.0,82,0.00,,SCT037,0.00,VWS V14.01,2013-07-04 23:18:00,
2013-07-04 19:23:00,83.0,77.3,30.17,South,174,12.0,17.0,83,0.00,,SCT037,0.00,VWS V14.01,2013-07-04 23:23:00,
2013-07-04 19:28:00,82.9,77.6,30.17,SSE,167,9.0,14.0,84,0.00,,SCT037,0.00,VWS V14.01,2013-07-04 23:28:00,
2013-07-04 19:33:00,82.7,77.4,30.17,South,177,10.0,17.0,84,0.00,,FEW040,0.00,VWS V14.01,2013-07-04 23:33:00,
2013-07-04 19:38:00,82.5,76.8,30.17,SSE,165,13.0,18.0,83,0.00,,FEW040,0.00,VWS V14.01,2013-07-04 23:38:00,
2013-07-04 19:43:00,82.4,77.1,30.17,South,179,12.0,16.0,84,0.00,,FEW040,0.00,VWS V14.01,2013-07-04 23:43:00,
2013-07-04 19:48:00,82.3,77.3,30.17,South,172,11.0,15.0,85,0.00,,FEW040,0.00,VWS V14.01,2013-07-04 23:48:00,
2013-07-04 19:53:00,82.1,77.2,30.17,SSE,165,17.0,18.0,85,0.00,,FEW040,0.00,VWS V14.01,2013-07-04 23:53:00,
2013-07-04 19:58:00,82.1,77.5,30.17,South,169,15.0,19.0,86,0.00,,FEW040,0.00,VWS V14.01,2013-07-04 23:58:00,
2013-07-04 20:03:00,82.0,77.1,30.17,SSE,159,13.0,17.0,85,0.00,,FEW040,0.00,VWS V14.01,2013-07-05 00:03:00,
2013-07-04 20:08:00,81.9,77.3,30.17,South,187,5.0,12.0,86,0.00,,FEW040,0.00,VWS V14.01,2013-07-05 00:08:00,
2013-07-04 20:13:00,81.7,76.8,30.17,South,181,11.0,19.0,85,0.00,,SKC,0.00,VWS V14.01,2013-07-05 00:13:00,
2013-07-04 20:18:00,81.6,77.0,30.17,South,183,12.0,16.0,86,0.00,,SKC,0.00,VWS V14.01,2013-07-05 00:18:00,
2013-07-04 20:23:00,81.6,77.4,30.17,South,191,12.0,15.0,87,0.00,,SKC,0.00,VWS V14.01,2013-07-05 00:23:00,
2013-07-04 20:28:00,81.5,76.9,30.17,SSE,158,15.0,22.0,86,0.00,,SKC,0.00,VWS V14.01,2013-07-05 00:28:00,
2013-07-04 20:33:00,81.5,76.9,30.17,South,181,12.0,17.0,86,0.00,,SKC,0.00,VWS V14.01,2013-07-05 00:33:00,
2013-07-04 20:38:00,81.4,77.2,30.17,SSW,193,12.0,19.0,87,0.00,,SKC,0.00,VWS V14.01,2013-07-05 00:38:00,
2013-07-04 20:43:00,81.3,76.7,30.18,SSE,158,16.0,18.0,86,0.00,,SKC,0.00,VWS V14.01,2013-07-05 00:43:00,
2013-07-04 20:48:00,81.2,76.6,30.18,SSW,192,12.0,19.0,86,0.00,,SKC,0.00,VWS V14.01,2013-07-05 00:48:00,
2013-07-04 20:54:00,81.2,76.6,30.18,SSE,166,16.0,20.0,86,0.00,,SKC,0.00,VWS V14.01,2013-07-05 00:54:00,
2013-07-04 20:59:00,81.1,76.9,30.18,South,175,19.0,19.0,87,0.00,,SKC,0.00,VWS V14.01,2013-07-05 00:59:00,
2013-07-04 21:04:00,81.1,76.9,30.18,SSE,157,17.0,19.0,87,0.00,,SKC,0.00,VWS V14.01,2013-07-05 01:04:00,
2013-07-04 21:09:00,81.1,76.9,30.18,SSE,168,14.0,18.0,87,0.00,,SKC,0.00,VWS V14.01,2013-07-05 01:09:00,
2013-07-04 21:14:00,81.0,76.8,30.18,South,170,11.0,19.0,87,0.00,,SKC,0.00,VWS V14.01,2013-07-05 01:14:00,
2013-07-04 21:19:00,80.9,76.7,30.18,SSE,166,10.0,20.0,87,0.00,,SKC,0.00,VWS V14.01,2013-07-05 01:19:00,
2013-07-04 21:24:00,80.9,77.0,30.18,SSE,163,9.0,17.0,88,0.00,,SKC,0.00,VWS V14.01,2013-07-05 01:24:00,
2013-07-04 21:29:00,80.7,76.8,30.18,South,185,11.0,21.0,88,0.00,,SKC,0.00,VWS V14.01,2013-07-05 01:29:00,
2013-07-04 21:34:00,80.6,76.7,30.18,SSE,155,16.0,18.0,88,0.00,,SKC,0.00,VWS V14.01,2013-07-05 01:34:00,
2013-07-04 21:39:00,80.5,77.0,30.18,South,171,10.0,18.0,89,0.00,,SKC,0.00,VWS V14.01,2013-07-05 01:39:00,
2013-07-04 21:44:00,80.5,76.6,30.18,South,174,15.0,17.0,88,0.00,,SKC,0.00,VWS V14.01,2013-07-05 01:44:00,
2013-07-04 21:49:00,80.5,77.0,30.18,SSW,192,15.0,18.0,89,0.00,,SKC,0.00,VWS V14.01,2013-07-05 01:49:00,
2013-07-04 21:54:00,80.4,76.5,30.19,South,190,17.0,18.0,88,0.00,,SKC,0.00,VWS V14.01,2013-07-05 01:54:00,
2013-07-04 21:59:00,80.5,77.0,30.19,South,171,9.0,15.0,89,0.00,,SKC,0.00,VWS V14.01,2013-07-05 01:59:00,
2013-07-04 22:04:00,80.4,76.5,30.19,South,191,13.0,17.0,88,0.00,,SKC,0.00,VWS V14.01,2013-07-05 02:04:00,
2013-07-04 22:09:00,80.4,76.5,30.19,South,176,13.0,13.0,88,0.00,,SKC,0.00,VWS V14.01,2013-07-05 02:09:00,
2013-07-04 22:14:00,80.4,76.5,30.19,South,179,9.0,16.0,88,0.00,,SKC,0.00,VWS V14.01,2013-07-05 02:14:00,
2013-07-04 22:19:00,80.4,76.5,30.19,South,182,13.0,18.0,88,0.00,,SKC,0.00,VWS V14.01,2013-07-05 02:19:00,
2013-07-04 22:24:00,80.3,76.8,30.19,South,176,12.0,16.0,89,0.00,,SKC,0.00,VWS V14.01,2013-07-05 02:24:00,
2013-07-04 22:29:00,80.3,76.8,30.20,South,178,15.0,15.0,89,0.00,,SKC,0.00,VWS V14.01,2013-07-05 02:29:00,
2013-07-04 22:34:00,80.3,76.4,30.19,SSW,195,14.0,16.0,88,0.00,,SKC,0.00,VWS V14.01,2013-07-05 02:34:00,
2013-07-04 22:39:00,80.3,76.8,30.19,South,169,13.0,19.0,89,0.00,,SKC,0.00,VWS V14.01,2013-07-05 02:39:00,
2013-07-04 22:44:00,80.3,76.8,30.19,SSE,157,6.0,16.0,89,0.00,,SKC,0.00,VWS V14.01,2013-07-05 02:44:00,
2013-07-04 22:49:00,80.2,76.7,30.19,South,172,13.0,17.0,89,0.00,,SKC,0.00,VWS V14.01,2013-07-05 02:49:00,
2013-07-04 22:54:00,80.1,76.6,30.19,South,177,11.0,14.0,89,0.00,,SKC,0.00,VWS V14.01,2013-07-05 02:54:00,
2013-07-04 22:59:00,80.2,76.7,30.19,SSE,159,11.0,14.0,89,0.00,,SKC,0.00,VWS V14.01,2013-07-05 02:59:00,
2013-07-04 23:04:00,80.2,76.7,30.19,South,174,14.0,14.0,89,0.00,,SKC,0.00,VWS V14.01,2013-07-05 03:04:00,
2013-07-04 23:09:00,80.1,76.9,30.19,South,172,10.0,15.0,90,0.00,,SKC,0.00,VWS V14.01,2013-07-05 03:09:00,
2013-07-04 23:14:00,80.1,76.9,30.19,SSE,167,11.0,15.0,90,0.00,,SKC,0.00,VWS V14.01,2013-07-05 03:14:00,
2013-07-04 23:19:00,80.0,76.8,30.19,South,189,9.0,15.0,90,0.00,,SKC,0.00,VWS V14.01,2013-07-05 03:19:00,
2013-07-04 23:24:00,80.0,76.8,30.19,SSE,165,10.0,13.0,90,0.00,,SKC,0.00,VWS V14.01,2013-07-05 03:24:00,
2013-07-04 23:29:00,79.9,76.7,30.19,SSE,159,10.0,20.0,90,0.00,,SKC,0.00,VWS V14.01,2013-07-05 03:29:00,
2013-07-04 23:34:00,79.9,76.7,30.19,South,170,8.0,13.0,90,0.00,,CLR,0.00,VWS V14.01,2013-07-05 03:34:00,
2013-07-04 23:39:00,79.9,77.0,30.19,SSW,201,4.0,14.0,91,0.00,,CLR,0.00,VWS V14.01,2013-07-05 03:39:00,
2013-07-04 23:44:00,79.8,76.6,30.19,SSW,198,13.0,15.0,90,0.00,,CLR,0.00,VWS V14.01,2013-07-05 03:44:00,
2013-07-04 23:49:00,79.9,77.0,30.19,South,175,6.0,14.0,91,0.00,,CLR,0.00,VWS V14.01,2013-07-05 03:49:00,
2013-07-04 23:54:00,79.8,76.9,30.19,South,173,11.0,15.0,91,0.00,,CLR,0.00,VWS V14.01,2013-07-05 03:54:00,
2013-07-04 23:59:00,79.7,76.8,30.20,South,184,11.0,15.0,91,0.00,,CLR,0.00,VWS V14.01,2013-07-05 03:59:00,